• In Czech Republic
  • List of Countries
  • For 7 days
  • Water Temperature
  • Satellite Maps
  • Weather Map
  • Weather Widgets
  • user-avatar
    Login

    Hourly Weather Senago

    Today, 15 October, Monday

    Time Temperature Precipitation Wind Pressure Humidity
    00:00 +16°C° 0 mm 1 mps 749 mmHg 66%
    01:00 +16°C° 0 mm 1 mps 749 mmHg 68%
    02:00 +16°C° 0.1 mm 1 mps 749 mmHg 69%
    03:00 +15°C° 0.1 mm 1 mps 749 mmHg 71%
    04:00 +15°C° 0.1 mm 1 mps 748 mmHg 73%
    05:00 +15°C° 0.1 mm 1 mps 748 mmHg 74%
    06:00 +15°C° 0.1 mm 1 mps 748 mmHg 74%
    07:00 +15°C° 0 mm 1 mps 748 mmHg 73%
    08:00 +16°C° 0 mm 1 mps 748 mmHg 68%
    09:00 +19°C° 0 mm 1 mps 748 mmHg 64%
    10:00 +20°C° 0 mm 1 mps 748 mmHg 59%
    11:00 +20°C° 0.1 mm 2 mps 748 mmHg 57%
    12:00 +21°C° 0.1 mm 2 mps 748 mmHg 54%
    13:00 +23°C° 0.1 mm 2 mps 748 mmHg 52%
    14:00 +23°C° 0.1 mm 2 mps 748 mmHg 53%
    15:00 +23°C° 0.1 mm 2 mps 748 mmHg 53%
    16:00 +22°C° 0.1 mm 1 mps 747 mmHg 54%
    17:00 +21°C° 0 mm 1 mps 748 mmHg 58%
    18:00 +20°C° 0 mm 1 mps 748 mmHg 62%
    19:00 +19°C° 0 mm 1 mps 749 mmHg 66%
    20:00 +19°C° 0.1 mm 1 mps 749 mmHg 69%
    21:00 +19°C° 0.1 mm 1 mps 749 mmHg 72%
    22:00 +17°C° 0.1 mm 2 mps 749 mmHg 74%
    23:00 +18°C° 0.1 mm 1 mps 749 mmHg 75%

    Tomorrow, 16 October, Tuesday

    Time Temperature Precipitation Wind Pressure Humidity
    00:00 +16°C° 0.1 mm 1 mps 749 mmHg 76%
    01:00 +16°C° 0.1 mm 1 mps 749 mmHg 78%
    02:00 +16°C° 0 mm 1 mps 749 mmHg 77%
    03:00 +16°C° 0 mm 1 mps 749 mmHg 76%
    04:00 +16°C° 0 mm 1 mps 749 mmHg 75%
    05:00 +16°C° 0 mm 1 mps 749 mmHg 75%
    06:00 +16°C° 0 mm 1 mps 749 mmHg 74%
    07:00 +16°C° 0 mm 1 mps 749 mmHg 74%
    08:00 +18°C° 0 mm 1 mps 749 mmHg 69%
    09:00 +19°C° 0 mm 1 mps 750 mmHg 65%
    10:00 +21°C° 0 mm 1 mps 750 mmHg 60%
    11:00 +21°C° 0 mm 1 mps 750 mmHg 58%
    12:00 +22°C° 0 mm 1 mps 750 mmHg 57%
    13:00 +23°C° 0 mm 1 mps 750 mmHg 55%
    14:00 +22°C° 0 mm 1 mps 749 mmHg 57%
    15:00 +22°C° 0 mm 1 mps 749 mmHg 59%
    16:00 +22°C° 0 mm 1 mps 749 mmHg 61%
    17:00 +21°C° 0 mm 1 mps 749 mmHg 67%
    18:00 +19°C° 0 mm 1 mps 749 mmHg 73%
    19:00 +18°C° 0 mm 1 mps 750 mmHg 79%
    20:00 +18°C° 0 mm 1 mps 750 mmHg 80%
    21:00 +18°C° 0 mm 1 mps 750 mmHg 80%
    22:00 +16°C° 0 mm 1 mps 750 mmHg 80%
    23:00 +16°C° 0 mm 1 mps 750 mmHg 80%

    Day after tomorrow, 17 October, Wednesday

    Time Temperature Precipitation Wind Pressure Humidity
    00:00 +16°C° 0 mm 1 mps 750 mmHg 79%
    01:00 +16°C° 0 mm 1 mps 750 mmHg 78%
    02:00 +16°C° 0 mm 1 mps 749 mmHg 78%
    03:00 +16°C° 0 mm 1 mps 749 mmHg 77%
    04:00 +16°C° 0 mm 1 mps 749 mmHg 77%
    05:00 +15°C° 0 mm 1 mps 749 mmHg 76%
    06:00 +15°C° 0 mm 1 mps 749 mmHg 76%
    07:00 +15°C° 0 mm 1 mps 749 mmHg 75%
    08:00 +18°C° 0 mm 1 mps 749 mmHg 69%
    09:00 +17°C° 0 mm 0 mps 749 mmHg 63%
    10:00 +19°C° 0 mm 0 mps 749 mmHg 57%
    11:00 +20°C° 0 mm 0 mps 748 mmHg 55%
    12:00 +23°C° 0 mm 1 mps 748 mmHg 54%
    13:00 +23°C° 0 mm 1 mps 748 mmHg 52%
    14:00 +23°C° 0 mm 1 mps 747 mmHg 54%
    15:00 +23°C° 0 mm 1 mps 747 mmHg 56%
    16:00 +23°C° 0 mm 1 mps 747 mmHg 58%
    17:00 +21°C° 0 mm 1 mps 747 mmHg 63%
    18:00 +20°C° 0 mm 1 mps 747 mmHg 69%
    19:00 +19°C° 0 mm 1 mps 747 mmHg 74%
    20:00 +19°C° 0 mm 1 mps 748 mmHg 75%
    21:00 +19°C° 0 mm 1 mps 748 mmHg 76%
    22:00 +18°C° 0 mm 1 mps 748 mmHg 77%
    23:00 +18°C° 0 mm 1 mps 748 mmHg 77%

    18 October, Thursday

    Time Temperature Precipitation Wind Pressure Humidity
    00:00 +18°C° 0 mm 1 mps 748 mmHg 77%
    01:00 +18°C° 0 mm 1 mps 748 mmHg 77%
    02:00 +18°C° 0 mm 1 mps 747 mmHg 77%
    03:00 +18°C° 0 mm 1 mps 747 mmHg 76%
    04:00 +18°C° 0 mm 1 mps 747 mmHg 76%
    05:00 +18°C° 0 mm 1 mps 747 mmHg 76%
    06:00 +16°C° 0 mm 1 mps 747 mmHg 76%
    07:00 +16°C° 0 mm 1 mps 747 mmHg 77%
    08:00 +19°C° 0 mm 1 mps 747 mmHg 71%
    09:00 +18°C° 0 mm 0 mps 747 mmHg 66%
    10:00 +20°C° 0 mm 0 mps 747 mmHg 60%
    11:00 +23°C° 0 mm 1 mps 747 mmHg 58%
    12:00 +24°C° 0 mm 1 mps 747 mmHg 55%
    13:00 +25°C° 0 mm 1 mps 746 mmHg 52%
    14:00 +24°C° 0 mm 1 mps 746 mmHg 53%
    15:00 +24°C° 0 mm 1 mps 746 mmHg 54%
    16:00 +24°C° 0 mm 1 mps 746 mmHg 55%
    17:00 +23°C° 0 mm 1 mps 746 mmHg 60%
    18:00 +21°C° 0 mm 1 mps 747 mmHg 66%
    19:00 +20°C° 0 mm 1 mps 747 mmHg 71%
    20:00 +19°C° 0 mm 1 mps 747 mmHg 72%
    21:00 +19°C° 0 mm 1 mps 747 mmHg 73%
    22:00 +19°C° 0 mm 1 mps 748 mmHg 74%
    23:00 +19°C° 0 mm 1 mps 748 mmHg 74%

    19 October, Friday

    Time Temperature Precipitation Wind Pressure Humidity
    00:00 +18°C° 0 mm 1 mps 748 mmHg 74%
    01:00 +18°C° 0 mm 1 mps 748 mmHg 75%
    02:00 +18°C° 0 mm 1 mps 748 mmHg 75%
    03:00 +16°C° 0 mm 1 mps 748 mmHg 75%
    04:00 +16°C° 0 mm 1 mps 747 mmHg 75%
    05:00 +16°C° 0 mm 1 mps 748 mmHg 76%
    06:00 +16°C° 0 mm 1 mps 748 mmHg 76%
    07:00 +16°C° 0 mm 1 mps 748 mmHg 76%
    08:00 +18°C° 0 mm 1 mps 748 mmHg 70%
    09:00 +18°C° 0 mm 0 mps 748 mmHg 64%
    10:00 +20°C° 0 mm 0 mps 748 mmHg 58%
    11:00 +23°C° 0 mm 1 mps 748 mmHg 56%
    12:00 +24°C° 0 mm 1 mps 748 mmHg 53%
    13:00 +25°C° 0 mm 1 mps 748 mmHg 51%
    14:00 +25°C° 0 mm 1 mps 748 mmHg 52%
    15:00 +24°C° 0 mm 1 mps 748 mmHg 53%
    16:00 +24°C° 0 mm 1 mps 747 mmHg 54%
    17:00 +23°C° 0 mm 1 mps 748 mmHg 59%
    18:00 +21°C° 0 mm 1 mps 748 mmHg 64%
    19:00 +20°C° 0 mm 1 mps 748 mmHg 70%
    20:00 +20°C° 0 mm 1 mps 749 mmHg 71%
    21:00 +19°C° 0 mm 1 mps 749 mmHg 72%
    22:00 +19°C° 0 mm 1 mps 749 mmHg 73%
    23:00 +19°C° 0.2 mm 1 mps 749 mmHg 73%

    20 October, Saturday

    Time Temperature Precipitation Wind Pressure Humidity
    00:00 +18°C° 0.2 mm 1 mps 750 mmHg 74%
    01:00 +18°C° 0.2 mm 1 mps 750 mmHg 75%
    02:00 +18°C° 0.2 mm 1 mps 750 mmHg 76%
    03:00 +18°C° 0.2 mm 1 mps 750 mmHg 76%
    04:00 +16°C° 0.2 mm 1 mps 750 mmHg 77%
    05:00 +16°C° 0.1 mm 1 mps 750 mmHg 77%
    06:00 +16°C° 0.1 mm 1 mps 750 mmHg 77%
    07:00 +16°C° 0.1 mm 1 mps 750 mmHg 78%
    08:00 +19°C° 0 mm 1 mps 751 mmHg 72%
    09:00 +20°C° 0 mm 1 mps 751 mmHg 66%
    10:00 +20°C° 0 mm 0 mps 751 mmHg 60%
    11:00 +23°C° 0 mm 1 mps 751 mmHg 58%
    12:00 +24°C° 0 mm 1 mps 751 mmHg 55%
    13:00 +24°C° 0 mm 1 mps 751 mmHg 52%
    14:00 +24°C° 0.1 mm 1 mps 750 mmHg 54%
    15:00 +24°C° 0.1 mm 1 mps 750 mmHg 55%
    16:00 +24°C° 0.1 mm 1 mps 750 mmHg 56%
    17:00 +22°C° 0 mm 1 mps 751 mmHg 61%
    18:00 +21°C° 0 mm 1 mps 751 mmHg 65%
    19:00 +19°C° 0 mm 1 mps 751 mmHg 70%
    20:00 +19°C° 0 mm 1 mps 752 mmHg 71%
    21:00 +19°C° 0 mm 1 mps 752 mmHg 71%
    22:00 +18°C° 0 mm 1 mps 752 mmHg 72%
    23:00 +18°C° 0 mm 1 mps 752 mmHg 72%
    Show more